Location: Unspecified
(0.0000°N, 0.0000°E)
Time: 14:33:31
(UTC+00:00)

STARLINK-4333 - Pass Details

Date: 31 October 2025
Orbit: 561 x 565 km, 97.6° (Epoch: 28 March)

Event Time Altitude Azimuth Distance (km) Brightness Sun altitude
Rises 18:20:58 0° 340° (NNW) 2,735 7.3 -9.0°
Reaches altitude 10° 18:23:55 10° 315° (NW) 1,843 6.7 -9.8°
Maximum altitude 18:26:07 14° 282° (WNW) 1,576 7.0 -10.3°
Drops below altitude 10° 18:28:20 10° 248° (WSW) 1,848 7.9 -10.8°
Sets 18:31:19 0° 223° (SW) 2,747 8.3 -11.5°
